Caribou, ME

12:39 PM EST on January 24, 2017 (GMT -0500)
Caribou Municipal

Weather History for KCAR - November, 2013

Change the Weather History Date:

Wednesday, November 20, 2013

  Actual Average Record
Temperature  
Mean Temperature 25 °F 30 °F  
Max Temperature 30 °F 36 °F 67 °F (1953)
Min Temperature 20 °F 23 °F 2 °F (1986)
Degree Days  
Heating Degree Days 40 35  
Month to date heating degree days 595 627  
Since 1 July heating degree days 1551 1767  
Cooling Degree Days 0 0  
Month to date cooling degree days 0 0  
Year to date cooling degree days 192 180  
Moisture  
Dew Point 6 °F    
Average Humidity 46    
Maximum Humidity 60    
Minimum Humidity 31    
Precipitation  
Precipitation 0.00 in 0.13 in 0.99 in (2003)
Month to date precipitation 1.95 2.43  
Year to date precipitation 44.52 34.02  
Snow  
Snow 0.00 in 0.40 in 12.80 in (1945)
Month to date snowfall 4.2 5.5  
Since 1 July snowfall 5.2 7.2  
Since 1 September snowfall 5.2 7.2  
Snow Depth 0.00 in    
Sea Level Pressure  
Sea Level Pressure 30.39 in    
Wind  
Wind Speed 15 mph (NW)    
Max Wind Speed 32 mph    
Max Gust Speed 42 mph    
Visibility 10 miles    
Events      
T = Trace of Precipitation, MM = Missing Value Source: NWS Daily Summary

Daily Weather History Graph

Daily Weather History Graph

Search for Another Location

Airport or City:

Trip Planner

Search our weather history database for the weather conditions in past years. The results will help you decide how hot, cold, wet, or windy it might be!

Date:

Astronomy

Nov. 20, 2013 Rise Set
Actual Time 6:42 AM EST 3:52 PM EST
Civil Twilight 6:08 AM EST 4:26 PM EST
Nautical Twilight 5:31 AM EST 5:03 PM EST
Astronomical Twilight 4:55 AM EST 5:39 PM EST
Moon 6:32 PM EST (11/20) 9:05 AM EST (11/20)
Length of Visible Light 10h 17m
Length of Day
9h 10m
Waning Gibbous, 91% of the Moon is Illuminated
Nov 20
Waning Gibbous
Nov 25
Last Quarter
Dec 2
New
Dec 9
First Quarter
Dec 17
Full

Hourly Weather History & Observations

Time (EST) Temp. Windchill Dew Point Humidity Pressure Visibility Wind Dir Wind Speed Gust Speed Precip Events Conditions
12:54 AM 26.1 °F 12.3 °F 9.0 °F 49% 30.06 in 10.0 mi NW 19.6 mph 34.5 mph N/A   Mostly Cloudy
1:54 AM 25.0 °F 11.7 °F 8.1 °F 49% 30.10 in 10.0 mi NW 17.3 mph 32.2 mph N/A   Partly Cloudy
2:54 AM 24.1 °F 8.3 °F 7.0 °F 48% 30.14 in 10.0 mi NNW 24.2 mph 39.1 mph N/A   Clear
3:54 AM 23.0 °F 8.7 °F 6.1 °F 48% 30.19 in 10.0 mi NW 18.4 mph 33.4 mph N/A   Clear
4:54 AM 21.9 °F 6.9 °F 5.0 °F 48% 30.22 in 10.0 mi NW 19.6 mph 38.0 mph N/A   Clear
5:54 AM 21.9 °F 5.5 °F 5.0 °F 48% 30.27 in 10.0 mi NW 24.2 mph 33.4 mph N/A   Clear
6:54 AM 21.0 °F 5.7 °F 3.9 °F 48% 30.32 in 10.0 mi NW 19.6 mph 32.2 mph N/A   Clear
7:54 AM 23.0 °F 9.2 °F 3.9 °F 44% 30.35 in 10.0 mi NW 17.3 mph 27.6 mph N/A   Clear
8:54 AM 24.1 °F 8.7 °F 3.9 °F 42% 30.38 in 10.0 mi NNW 23.0 mph 34.5 mph N/A   Clear
9:54 AM 26.1 °F 14.0 °F 3.0 °F 37% 30.40 in 10.0 mi North 15.0 mph 28.8 mph N/A   Clear
10:54 AM 27.0 °F 14.3 °F 1.9 °F 34% 30.42 in 10.0 mi North 17.3 mph 23.0 mph N/A   Clear
11:54 AM 28.9 °F 16.9 °F 3.0 °F 33% 30.43 in 10.0 mi NNW 17.3 mph 24.2 mph N/A   Clear
12:54 PM 28.9 °F 15.8 °F 3.0 °F 33% 30.43 in 10.0 mi NW 20.7 mph 28.8 mph N/A   Clear
1:54 PM 30.0 °F 18.3 °F 3.0 °F 32% 30.44 in 10.0 mi NW 17.3 mph 29.9 mph N/A   Clear
2:54 PM 28.9 °F 16.5 °F 3.9 °F 35% 30.47 in 10.0 mi NW 18.4 mph 26.5 mph N/A   Clear
3:54 PM 27.0 °F 15.6 °F 3.9 °F 37% 30.49 in 10.0 mi NW 13.8 mph 18.4 mph N/A   Clear
4:54 PM 26.1 °F 16.8 °F 5.0 °F 41% 30.52 in 10.0 mi NNW 9.2 mph - N/A   Clear
5:54 PM 25.0 °F 14.8 °F 6.1 °F 45% 30.53 in 10.0 mi NW 10.4 mph - N/A   Clear
6:54 PM 25.0 °F 14.2 °F 8.1 °F 49% 30.54 in 10.0 mi NW 11.5 mph - N/A   Clear
7:54 PM 25.0 °F 13.6 °F 10.0 °F 53% 30.56 in 10.0 mi NW 12.7 mph - N/A   Clear
8:54 PM 25.0 °F 14.8 °F 10.9 °F 55% 30.56 in 10.0 mi NNW 10.4 mph - N/A   Clear
9:54 PM 24.1 °F 14.4 °F 12.0 °F 60% 30.58 in 10.0 mi NW 9.2 mph - N/A   Clear
10:54 PM 24.1 °F 19.7 °F 12.0 °F 60% 30.59 in 10.0 mi West 3.5 mph - N/A   Clear
11:54 PM 21.0 °F - 10.9 °F 65% 30.59 in 10.0 mi Calm Calm - N/A   Clear